Watts Bar Lake Weather Center

Moon Phase Calendar



Watts Bar Lake Water Level
Online Cameras

 


      

Current Conditions in Rockwood
6/27/2022 8:31:47 PM

76°F
Feels Like 77
Clouds
Humidity
66%
Pressure
30.06"
Wind
7 mph (N)
Dew Point
64°F
UV Index
0/10 (Low)
Visibility
6 mi

Hourly Forecast

Date & Time Mon, Jun 27
8:00 PM
Mon, Jun 27
9:00 PM
Mon, Jun 27
10:00 PM
Mon, Jun 27
11:00 PM
Tue, Jun 28
12:00 AM
Tue, Jun 28
1:00 AM
Tue, Jun 28
2:00 AM
Tue, Jun 28
3:00 AM
Tue, Jun 28
4:00 AM
Tue, Jun 28
5:00 AM
Tue, Jun 28
6:00 AM
Tue, Jun 28
7:00 AM
Tue, Jun 28
8:00 AM
Tue, Jun 28
9:00 AM
Tue, Jun 28
10:00 AM
Tue, Jun 28
11:00 AM
Tue, Jun 28
12:00 PM
Tue, Jun 28
1:00 PM
Tue, Jun 28
2:00 PM
Tue, Jun 28
3:00 PM
Tue, Jun 28
4:00 PM
Tue, Jun 28
5:00 PM
Tue, Jun 28
6:00 PM
Tue, Jun 28
7:00 PM
Tue, Jun 28
8:00 PM
Tue, Jun 28
9:00 PM
Tue, Jun 28
10:00 PM
Tue, Jun 28
11:00 PM
Wed, Jun 29
12:00 AM
Wed, Jun 29
1:00 AM
Wed, Jun 29
2:00 AM
Wed, Jun 29
3:00 AM
Wed, Jun 29
4:00 AM
Wed, Jun 29
5:00 AM
Wed, Jun 29
6:00 AM
Wed, Jun 29
7:00 AM
Wed, Jun 29
8:00 AM
Wed, Jun 29
9:00 AM
Wed, Jun 29
10:00 AM
Wed, Jun 29
11:00 AM
Wed, Jun 29
12:00 PM
Wed, Jun 29
1:00 PM
Wed, Jun 29
2:00 PM
Wed, Jun 29
3:00 PM
Wed, Jun 29
4:00 PM
Wed, Jun 29
5:00 PM
Wed, Jun 29
6:00 PM
Wed, Jun 29
7:00 PM
Condition
Clouds

Clouds

Clouds

Clouds

Clouds

Clouds

Clouds

Clouds

Clouds

Clouds

Clouds

Clouds

Clouds

Clouds

Clouds

Clouds

Clouds

Clouds

Clouds

Clouds

Clouds

Clouds

Clouds

Clouds

Clouds

Clouds

Clouds

Clouds

Clouds

Clouds

Clouds

Clouds

Clouds

Clouds

Clouds

Clear

Clear

Clear

Clear

Clear

Clear

Rain

Clear

Clouds

Clouds

Clouds

Clouds

Clouds
Temperature 77°F76°F76°F74°F71°F67°F64°F63°F62°F61°F61°F60°F63°F67°F71°F75°F79°F82°F84°F85°F86°F86°F85°F83°F78°F74°F72°F71°F69°F68°F68°F66°F65°F65°F64°F65°F69°F74°F78°F82°F84°F88°F90°F90°F91°F90°F88°F85°F
Feels Like 77°F77°F76°F74°F70°F67°F63°F62°F61°F61°F60°F60°F63°F67°F70°F74°F78°F81°F83°F85°F85°F86°F85°F85°F79°F74°F73°F71°F69°F68°F68°F66°F66°F65°F65°F66°F70°F74°F79°F84°F87°F90°F93°F92°F92°F92°F90°F88°F
Cloudiness 92%99%99%99%100%100%100%100%100%100%100%100%100%100%100%100%100%94%81%32%64%73%80%84%87%47%43%55%57%57%64%24%16%13%11%10%10%5%5%4%3%3%5%30%30%31%40%48%
Visibility 6 mi6 mi6 mi6 mi6 mi6 mi6 mi6 mi6 mi6 mi6 mi6 mi6 mi6 mi6 mi6 mi6 mi6 mi6 mi6 mi6 mi6 mi6 mi6 mi6 mi6 mi6 mi6 mi6 mi6 mi6 mi6 mi6 mi6 mi6 mi6 mi6 mi6 mi6 mi6 mi6 mi6 mi6 mi6 mi6 mi6 mi6 mi6 mi
Precipitation 21%0%0%0%0%0%0%0%0%0%0%0%0%0%0%0%0%0%0%0%0%0%0%0%0%0%0%0%0%0%0%0%0%0%0%0%0%0%0%0%8%23%27%28%20%13%9%6%
Humidity 63%66%63%62%64%66%68%70%72%72%72%74%70%60%53%46%42%41%41%41%42%43%45%54%64%67%69%73%77%81%79%85%88%90%93%92%83%74%65%58%54%50%46%42%40%41%45%58%
Dew Point 63°F64°F62°F60°F58°F56°F52°F52°F52°F51°F51°F51°F53°F52°F52°F52°F53°F55°F57°F58°F59°F60°F60°F64°F65°F61°F61°F61°F61°F61°F61°F61°F61°F61°F61°F62°F63°F64°F65°F65°F65°F66°F66°F64°F63°F63°F64°F68°F
Pressure 30.06"30.06"30.06"30.09"30.09"30.12"30.12"30.12"30.12"30.12"30.15"30.18"30.18"30.18"30.18"30.18"30.18"30.15"30.15"30.12"30.12"30.12"30.09"30.09"30.09"30.09"30.12"30.15"30.15"30.15"30.18"30.18"30.18"30.18"30.18"30.21"30.21"30.24"30.24"30.24"30.21"30.21"30.18"30.15"30.15"30.12"30.12"30.12"
Wind Speed 6.6 mph7 mph9 mph6.7 mph5 mph4.6 mph5.1 mph5.5 mph5.8 mph6.2 mph6.1 mph6.2 mph5.9 mph7.9 mph8.5 mph7.9 mph7.1 mph5.8 mph5.2 mph4.4 mph3.8 mph2.8 mph2.5 mph2 mph2 mph1.4 mph1.2 mph1.9 mph1.9 mph1.4 mph0.8 mph1.9 mph1.4 mph1.7 mph2.1 mph1.2 mph1.5 mph1.4 mph2 mph3 mph3.1 mph1.6 mph1.4 mph2 mph2.2 mph2.3 mph2.9 mph3.8 mph
Wind
Direction

N
358°
N

N

N

N

N
16°
NNE
14°
NNE
12°
NNE
17°
NNE
23°
NNE
22°
NNE
38°
NE
55°
NE
54°
NE
62°
ENE
75°
ENE
99°
E
118°
ESE
139°
SE
147°
SSE
151°
SSE
140°
SE
137°
SE
128°
SE
148°
SSE
201°
SSW
275°
W
324°
NW
355°
N
269°
W
258°
WSW
266°
W
250°
WSW
240°
WSW
255°
WSW
224°
SW
205°
SSW
182°
S
172°
S
178°
S
186°
S
182°
S
197°
SSW
190°
S
182°
S
185°
S
178°
S

Daily Forecast

Date High Low Precip. Humidity
Today
Jun 27

Rain
84 °F
68 °F
99%
59%
Tuesday
Jun 28

Clouds
86 °F
60 °F
0%
41%
Wednesday
Jun 29

Rain
90 °F
64 °F
27%
50%
Thursday
Jun 30

Rain
92 °F
68 °F
25%
40%
Friday
Jul 1

Rain
92 °F
70 °F
86%
43%
Saturday
Jul 2

Rain
90 °F
68 °F
100%
47%
Sunday
Jul 3

Rain
87 °F
70 °F
100%
59%
Monday
Jul 4

Clouds
95 °F
69 °F
8%
42%
Tuesday
Jul 5

Clear
96 °F
69 °F
0%
37%
Wednesday
Jul 6

Clouds
97 °F
71 °F
0%
36%
Thursday
Jul 7

Clouds
98 °F
74 °F
13%
35%
Friday
Jul 8

Rain
93 °F
74 °F
53%
54%
Saturday
Jul 9

Rain
87 °F
70 °F
77%
60%
Sunday
Jul 10

Clouds
93 °F
72 °F
6%
37%
Monday
Jul 11

Rain
94 °F
70 °F
90%
41%
Tuesday
Jul 12

Clouds
95 °F
66 °F
0%
30%

Temperature 8-14 Day Outlook



Precipitation 8-14 Day Outlook




Quick Links
Watts Bar Lake News
Watts Bar Lake Photos
Watts Bar Lake Videos




About Us
Contact Us
Site Map
Search Site
Advertise With Us
   
www.WattsBar.info
THE WATTS BAR LAKE WEBSITE

Copyright 2022, Lakes Online
Privacy    |    Legal